• în România
  • Lista ţărilor
  • Pe 7 zile
  • Temperatura apei
  • Hartă satelitară
  • Meteo pe hartă
  • Widget-uri
  • user-avatar
    Intrare

    Meteo pe oră la Konstantyna

    Astăzi, 18 Noiembrie, Sâmbătă

    Timp Temperatura Precipitaţii Vânt Presiune Umiditate
    00:00 +9°C° 0 mm 1 m/s 710 mmHg 85%
    01:00 +9°C° 0 mm 1 m/s 710 mmHg 85%
    02:00 +8°C° 0 mm 1 m/s 710 mmHg 84%
    03:00 +7°C° 0 mm 2 m/s 710 mmHg 83%
    04:00 +7°C° 0 mm 2 m/s 710 mmHg 82%
    05:00 +7°C° 0 mm 2 m/s 710 mmHg 81%
    06:00 +7°C° 0 mm 2 m/s 710 mmHg 80%
    07:00 +8°C° 0 mm 2 m/s 710 mmHg 74%
    08:00 +10°C° 0 mm 2 m/s 711 mmHg 68%
    09:00 +12°C° 0 mm 2 m/s 711 mmHg 62%
    10:00 +12°C° 0 mm 3 m/s 711 mmHg 63%
    11:00 +13°C° 0 mm 3 m/s 711 mmHg 64%
    12:00 +14°C° 0 mm 4 m/s 711 mmHg 64%
    13:00 +13°C° 0 mm 4 m/s 711 mmHg 65%
    14:00 +13°C° 0 mm 3 m/s 711 mmHg 67%
    15:00 +13°C° 0 mm 3 m/s 711 mmHg 68%
    16:00 +12°C° 0 mm 3 m/s 711 mmHg 73%
    17:00 +12°C° 0 mm 2 m/s 711 mmHg 78%
    18:00 +10°C° 0 mm 2 m/s 711 mmHg 84%
    19:00 +10°C° 0 mm 2 m/s 711 mmHg 86%
    20:00 +10°C° 0 mm 1 m/s 711 mmHg 88%
    21:00 +10°C° 0 mm 1 m/s 711 mmHg 89%
    22:00 +10°C° 0 mm 1 m/s 711 mmHg 90%
    23:00 +10°C° 0 mm 1 m/s 711 mmHg 90%

    Mâine, 19 Noiembrie, Duminică

    Timp Temperatura Precipitaţii Vânt Presiune Umiditate
    00:00 +9°C° 0 mm 1 m/s 711 mmHg 91%
    01:00 +9°C° 0 mm 1 m/s 711 mmHg 91%
    02:00 +8°C° 0 mm 2 m/s 711 mmHg 91%
    03:00 +8°C° 0 mm 2 m/s 711 mmHg 91%
    04:00 +8°C° 0 mm 2 m/s 711 mmHg 91%
    05:00 +8°C° 0 mm 2 m/s 711 mmHg 90%
    06:00 +8°C° 0 mm 2 m/s 711 mmHg 90%
    07:00 +9°C° 0 mm 2 m/s 712 mmHg 85%
    08:00 +10°C° 0 mm 2 m/s 712 mmHg 79%
    09:00 +13°C° 0 mm 2 m/s 713 mmHg 73%
    10:00 +12°C° 0 mm 3 m/s 713 mmHg 69%
    11:00 +13°C° 0 mm 3 m/s 713 mmHg 64%
    12:00 +14°C° 0 mm 3 m/s 713 mmHg 59%
    13:00 +14°C° 0 mm 3 m/s 713 mmHg 58%
    14:00 +14°C° 0 mm 3 m/s 712 mmHg 57%
    15:00 +14°C° 0 mm 3 m/s 712 mmHg 56%
    16:00 +14°C° 0 mm 2 m/s 712 mmHg 63%
    17:00 +12°C° 0 mm 2 m/s 712 mmHg 70%
    18:00 +11°C° 0 mm 1 m/s 712 mmHg 76%
    19:00 +10°C° 0 mm 1 m/s 713 mmHg 79%
    20:00 +10°C° 0 mm 1 m/s 713 mmHg 81%
    21:00 +10°C° 0 mm 1 m/s 713 mmHg 83%
    22:00 +9°C° 0 mm 1 m/s 713 mmHg 83%
    23:00 +9°C° 0 mm 1 m/s 713 mmHg 83%

    Poimâine, 20 Noiembrie, Luni

    Timp Temperatura Precipitaţii Vânt Presiune Umiditate
    00:00 +9°C° 0 mm 1 m/s 713 mmHg 82%
    01:00 +9°C° 0 mm 1 m/s 713 mmHg 81%
    02:00 +8°C° 0 mm 1 m/s 713 mmHg 80%
    03:00 +8°C° 0 mm 1 m/s 713 mmHg 78%
    04:00 +8°C° 0 mm 1 m/s 713 mmHg 77%
    05:00 +8°C° 0 mm 1 m/s 713 mmHg 75%
    06:00 +8°C° 0 mm 1 m/s 713 mmHg 73%
    07:00 +10°C° 0 mm 1 m/s 714 mmHg 64%
    08:00 +11°C° 0 mm 1 m/s 714 mmHg 56%
    09:00 +13°C° 0 mm 1 m/s 715 mmHg 47%
    10:00 +14°C° 0 mm 1 m/s 715 mmHg 43%
    11:00 +15°C° 0 mm 0 m/s 715 mmHg 40%
    12:00 +16°C° 0 mm 0 m/s 715 mmHg 36%
    13:00 +16°C° 0 mm 0 m/s 715 mmHg 36%
    14:00 +18°C° 0 mm 1 m/s 714 mmHg 36%
    15:00 +18°C° 0 mm 1 m/s 714 mmHg 36%
    16:00 +15°C° 0 mm 1 m/s 714 mmHg 44%
    17:00 +14°C° 0 mm 1 m/s 714 mmHg 52%
    18:00 +12°C° 0 mm 1 m/s 714 mmHg 60%
    19:00 +11°C° 0 mm 1 m/s 714 mmHg 61%
    20:00 +11°C° 0 mm 1 m/s 714 mmHg 62%
    21:00 +11°C° 0 mm 1 m/s 714 mmHg 63%
    22:00 +11°C° 0 mm 1 m/s 714 mmHg 60%
    23:00 +10°C° 0 mm 1 m/s 714 mmHg 57%

    21 Noiembrie, Marţi

    Timp Temperatura Precipitaţii Vânt Presiune Umiditate
    00:00 +10°C° 0 mm 1 m/s 714 mmHg 54%
    01:00 +10°C° 0 mm 1 m/s 714 mmHg 52%
    02:00 +10°C° 0 mm 1 m/s 713 mmHg 49%
    03:00 +10°C° 0 mm 1 m/s 713 mmHg 47%
    04:00 +10°C° 0 mm 1 m/s 713 mmHg 46%
    05:00 +9°C° 0 mm 1 m/s 713 mmHg 45%
    06:00 +9°C° 0 mm 1 m/s 713 mmHg 45%
    07:00 +11°C° 0 mm 1 m/s 713 mmHg 41%
    08:00 +13°C° 0 mm 2 m/s 714 mmHg 38%
    09:00 +15°C° 0 mm 2 m/s 714 mmHg 35%
    10:00 +16°C° 0 mm 1 m/s 714 mmHg 32%
    11:00 +18°C° 0 mm 1 m/s 714 mmHg 29%
    12:00 +19°C° 0 mm 1 m/s 714 mmHg 26%
    13:00 +19°C° 0 mm 1 m/s 714 mmHg 27%
    14:00 +19°C° 0 mm 1 m/s 713 mmHg 29%
    15:00 +19°C° 0 mm 1 m/s 713 mmHg 31%
    16:00 +16°C° 0 mm 1 m/s 713 mmHg 37%
    17:00 +14°C° 0 mm 1 m/s 713 mmHg 43%
    18:00 +12°C° 0 mm 1 m/s 712 mmHg 49%
    19:00 +12°C° 0 mm 1 m/s 712 mmHg 48%
    20:00 +12°C° 0 mm 1 m/s 713 mmHg 48%
    21:00 +11°C° 0 mm 1 m/s 713 mmHg 48%
    22:00 +11°C° 0 mm 1 m/s 712 mmHg 47%
    23:00 +11°C° 0 mm 1 m/s 712 mmHg 45%

    22 Noiembrie, Miercuri

    Timp Temperatura Precipitaţii Vânt Presiune Umiditate
    00:00 +11°C° 0 mm 1 m/s 712 mmHg 44%
    01:00 +10°C° 0 mm 1 m/s 712 mmHg 43%
    02:00 +10°C° 0 mm 1 m/s 711 mmHg 42%
    03:00 +10°C° 0 mm 1 m/s 711 mmHg 41%
    04:00 +10°C° 0 mm 1 m/s 711 mmHg 41%
    05:00 +10°C° 0 mm 1 m/s 711 mmHg 40%
    06:00 +8°C° 0 mm 2 m/s 711 mmHg 39%
    07:00 +11°C° 0 mm 1 m/s 712 mmHg 36%
    08:00 +13°C° 0 mm 1 m/s 712 mmHg 33%
    09:00 +15°C° 0 mm 1 m/s 713 mmHg 30%
    10:00 +18°C° 0 mm 1 m/s 712 mmHg 28%
    11:00 +18°C° 0 mm 2 m/s 712 mmHg 25%
    12:00 +19°C° 0 mm 2 m/s 712 mmHg 22%
    13:00 +20°C° 0 mm 1 m/s 712 mmHg 23%
    14:00 +20°C° 0 mm 1 m/s 712 mmHg 24%
    15:00 +20°C° 0 mm 1 m/s 712 mmHg 25%
    16:00 +18°C° 0 mm 1 m/s 712 mmHg 28%
    17:00 +15°C° 0 mm 1 m/s 711 mmHg 30%
    18:00 +14°C° 0 mm 1 m/s 711 mmHg 32%
    19:00 +13°C° 0 mm 1 m/s 712 mmHg 32%
    20:00 +13°C° 0 mm 2 m/s 712 mmHg 31%
    21:00 +13°C° 0 mm 2 m/s 712 mmHg 31%
    22:00 +12°C° 0 mm 2 m/s 712 mmHg 32%
    23:00 +12°C° 0 mm 2 m/s 712 mmHg 33%

    23 Noiembrie, Joi

    Timp Temperatura Precipitaţii Vânt Presiune Umiditate
    00:00 +10°C° 0 mm 2 m/s 712 mmHg 34%
    01:00 +10°C° 0 mm 2 m/s 712 mmHg 36%
    02:00 +10°C° 0 mm 2 m/s 711 mmHg 37%
    03:00 +9°C° 0 mm 2 m/s 711 mmHg 39%
    04:00 +9°C° 0 mm 2 m/s 712 mmHg 39%
    05:00 +9°C° 0 mm 2 m/s 712 mmHg 40%
    06:00 +9°C° 0 mm 2 m/s 712 mmHg 41%
    07:00 +12°C° 0 mm 2 m/s 712 mmHg 38%
    08:00 +14°C° 0 mm 2 m/s 713 mmHg 36%
    09:00 +16°C° 0 mm 2 m/s 714 mmHg 34%
    10:00 +17°C° 0 mm 2 m/s 714 mmHg 31%
    11:00 +18°C° 0 mm 2 m/s 714 mmHg 29%
    12:00 +19°C° 0 mm 2 m/s 714 mmHg 27%
    13:00 +19°C° 0 mm 2 m/s 714 mmHg 29%
    14:00 +20°C° 0 mm 1 m/s 714 mmHg 31%
    15:00 +20°C° 0 mm 1 m/s 714 mmHg 33%
    16:00 +18°C° 0 mm 1 m/s 714 mmHg 36%
    17:00 +16°C° 0 mm 1 m/s 714 mmHg 40%
    18:00 +14°C° 0 mm 1 m/s 714 mmHg 43%
    19:00 +14°C° 0 mm 1 m/s 714 mmHg 43%
    20:00 +14°C° 0 mm 1 m/s 714 mmHg 43%
    21:00 +13°C° 0 mm 1 m/s 714 mmHg 44%
    22:00 +13°C° 0 mm 1 m/s 714 mmHg 44%
    23:00 +13°C° 0 mm 1 m/s 714 mmHg 45%
    Arată mai mult